Flag for Germany Weather past 2 weeks in Neu-Ulm, Bavaria, Germany

Now
57 °F

Fog.


Feels Like: 57 °F
Forecast: 49 / 65 °F
Wind: 1 mph from North

Location: Laupheim Airport

Current Time: Oct 1, 2014 at 9:53:39 AM

Latest Report: Oct 1, 2014 at 9:20 AM


Visibility: 2 mi

Pressure: 30.33 "Hg

Humidity: 94%

Dew point: 55 °F

Location of Neu-UlmLocation

Historic Weather in Neu-Ulm — Graph

°F

Neu-Ulm temperature yesterday

Maximum temperature yesterday: 66 °F (at 3:20 PM)
Minimum temperature yesterday: 57 °F (at 12:20 AM)
Average temperature yesterday: 60 °F

Past Weeks' High & Low Weather Summary

 TemperatureHumidityPressure
High75 °F (Sep 19, 2:45 PM)100% (Sep 16, 8:20 AM)30.36 "Hg (Sep 16, 8:20 AM)
Low36 °F (Sep 24, 6:20 AM)52% (Sep 26, 4:20 PM)29.89 "Hg (Sep 24, 4:20 PM)
Average55 °F89%30.13 "Hg
* Reported Sep 16 8:20 AM — Oct 1 8:20 AM, Neu-Ulm, Weather by CustomWeather, © 2014

Note: Actual official high and low records may vary slightly from our data, if they occured in-between our weather recording intervals... More about our weather records

Advertising

Neu-Ulm weather history for previous 24 hours

 ConditionsComfort  
Time TempWeatherWind HumidityBarometerVisibility
8:20 AM
Oct 1
55 °FFog.2 mph100%30.30 "Hg1 mi
7:20 AM55 °FFog.1 mph100%30.30 "Hg1 mi
6:20 AM55 °FFog.1 mph100%30.30 "Hg1 mi
5:20 AM57 °FFog.1 mph100%30.30 "Hg0 mi
4:20 AM59 °FFog.1 mph100%30.30 "Hg1 mi
3:20 AM59 °FFog.No wind100%30.30 "Hg1 mi
2:20 AM59 °FFog.No wind100%30.30 "Hg0 mi
1:20 AM59 °FFog.3 mph100%30.30 "Hg1 mi
12:20 AM59 °FFog.2 mph100%30.33 "Hg2 mi
11:20 PM
Sep 30
59 °FFog.2 mph100%30.33 "Hg2 mi
10:20 PM61 °FLight rain. Fog.2 mph94%30.33 "Hg2 mi
9:20 PM61 °FFog.3 mph94%30.33 "Hg2 mi
8:20 PM61 °FFog.No wind100%30.33 "Hg3 mi
7:20 PM61 °FRain. Fog.2 mph94%30.30 "Hg3 mi
6:20 PM61 °FHeavy rain. Fog.2 mph94%30.30 "Hg3 mi
5:20 PM64 °FLight rain. Broken clouds.2 mph78%30.30 "Hg4 mi
4:20 PM66 °FBroken clouds.1 mph68%30.30 "HgN/A
3:20 PM66 °FBroken clouds.2 mph78%30.30 "HgN/A
2:20 PM64 °FMore clouds than sun.2 mph78%30.33 "HgN/A
1:20 PM64 °FBroken clouds.1 mph78%30.33 "HgN/A
12:20 PM63 °FBroken clouds.2 mph83%30.33 "HgN/A
11:20 AM61 °FBroken clouds.3 mph88%30.33 "HgN/A
10:20 AM59 °FBroken clouds.5 mph94%30.33 "HgN/A
9:20 AM57 °FPartly sunny.2 mph94%30.33 "Hg5 mi
Weather by CustomWeather, © 2014

See weather overviewHow to use our weather pages